Location: Pianadetto
(44.4000°N, 10.1000°E)
Time: 19:49:03
(UTC+00:00)

Cosmos 1610 Rocket - Pass Details

Date: 26 May 2022
Orbit: 952 x 1003 km, 82.9° (Epoch: 02 July)

Event Time Altitude Azimuth Distance (km) Brightness Sun altitude
Rises 01:39:37 0° 351° (N) 3,656 8.2 -16.8°
Reaches altitude 10° 01:42:08 10° 351° (N) 2,700 7.5 -16.5°
Maximum altitude 01:48:19 87° 262° (W) 961 4.4 -15.9°
Enters shadow 01:54:07 12° 175° (S) 2,557 6.3 -15.3°
